Location: Unspecified
(0.0000°N, 0.0000°E)
Time: 03:25:49
(UTC+00:00)

Tiangong - Pass Details

Date: 26 March 2026
Orbit: 376 x 385 km, 41.5° (Epoch: 20 April)

Event Time Altitude Azimuth Distance (km) Brightness Sun altitude
Rises 19:04:26 0° 241° (WSW) 2,239 2.8 -14.7°
Reaches altitude 10° 19:06:39 10° 251° (WSW) 1,383 1.8 -15.2°
Maximum altitude 19:09:28 31° 316° (NW) 685 -0.4 -16.0°
Enters shadow 19:11:59 12° 18° (NNE) 1,270 0.3 -16.6°
